Ellensburg, WA

1:46 PM PDT on May 25, 2017 (GMT -0700)
Bowers

Weather History for KELN - March, 2014

Change the Weather History Date:

Saturday, March 22, 2014

  Actual Average (KYKM) Record (KYKM)
Temperature  
Mean Temperature 41 °F -  
Max Temperature 57 °F 59 °F 75 °F (1960)
Min Temperature 25 °F 32 °F 17 °F (1994)
Degree Days  
Heating Degree Days 24    
Moisture  
Dew Point 22 °F    
Average Humidity 51    
Maximum Humidity 75    
Minimum Humidity 25    
Precipitation  
Precipitation 0.00 in - - ()
Sea Level Pressure  
Sea Level Pressure 30.26 in    
Wind  
Wind Speed 2 mph (NW)    
Max Wind Speed 10 mph    
Max Gust Speed -    
Visibility 10 miles    
Events      
Averages and records for this station are not official NWS values.
T = Trace of Precipitation, MM = Missing Value Source: NWS Daily Summary

Daily Weather History Graph

Daily Weather History Graph

Search for Another Location

Airport or City:

Trip Planner

Search our weather history database for the weather conditions in past years. The results will help you decide how hot, cold, wet, or windy it might be!

Date:

Astronomy

Mar. 22, 2014 Rise Set
Actual Time 7:00 AM PDT 7:17 PM PDT
Civil Twilight 6:30 AM PDT 7:48 PM PDT
Nautical Twilight 5:54 AM PDT 8:24 PM PDT
Astronomical Twilight 5:17 AM PDT 9:01 PM PDT
Moon 1:00 AM PDT (3/22) 10:30 AM PDT (3/22)
Length of Visible Light 13h 17m
Length of Day
12h 16m
Waning Gibbous, 64% of the Moon is Illuminated
Mar 22
Waning Gibbous
Mar 23
Last Quarter
Mar 30
New
Apr 7
First Quarter
Apr 15
Full

Hourly Weather History & Observations

Time (PDT) Temp. Windchill Dew Point Humidity Pressure Visibility Wind Dir Wind Speed Gust Speed Precip Events Conditions
12:53 AM 30.0 °F 26.5 °F 19.9 °F 66% 30.30 in 10.0 mi NW 3.5 mph - N/A   Clear
1:53 AM 28.9 °F - 18.0 °F 64% 30.30 in 10.0 mi Calm Calm - N/A   Clear
2:53 AM 26.1 °F - 17.1 °F 69% 30.31 in 10.0 mi Calm Calm - N/A   Clear
3:53 AM 26.1 °F - 17.1 °F 69% 30.31 in 10.0 mi Calm Calm - N/A   Clear
4:53 AM 26.1 °F - 17.1 °F 69% 30.32 in 10.0 mi Calm Calm - N/A   Clear
5:53 AM 27.0 °F - 18.0 °F 69% 30.32 in 10.0 mi Calm Calm - N/A   Clear
6:53 AM 25.0 °F - 18.0 °F 75% 30.34 in 10.0 mi Calm Calm - N/A   Clear
7:53 AM 28.0 °F - 21.0 °F 75% 30.35 in 10.0 mi Calm Calm - N/A   Clear
8:53 AM 33.1 °F - 23.0 °F 66% 30.34 in 10.0 mi Calm Calm - N/A   Clear
9:53 AM 37.0 °F - 24.1 °F 59% 30.34 in 10.0 mi Calm Calm - N/A   Clear
10:53 AM 43.0 °F - 24.1 °F 47% 30.33 in 10.0 mi Calm Calm - N/A   Clear
11:53 AM 48.0 °F - 24.1 °F 39% 30.31 in 10.0 mi Variable 3.5 mph - N/A   Clear
12:53 PM 51.1 °F - 21.9 °F 32% 30.28 in 10.0 mi Variable 3.5 mph - N/A   Clear
1:53 PM 54.0 °F - 21.0 °F 28% 30.25 in 10.0 mi Variable 6.9 mph - N/A   Clear
2:53 PM 55.0 °F - 19.9 °F 25% 30.22 in 10.0 mi Calm Calm - N/A   Clear
3:53 PM 57.0 °F - 21.0 °F 25% 30.20 in 10.0 mi Variable 3.5 mph - N/A   Clear
4:53 PM 54.0 °F - 21.9 °F 29% 30.19 in 10.0 mi WNW 3.5 mph - N/A   Overcast
5:53 PM 54.0 °F - 23.0 °F 30% 30.17 in 10.0 mi SW 3.5 mph - N/A   Mostly Cloudy
6:53 PM 50.0 °F - 23.0 °F 35% 30.17 in 10.0 mi Variable 5.8 mph - N/A   Partly Cloudy
7:53 PM 45.0 °F 40.6 °F 26.1 °F 48% 30.17 in 10.0 mi NNW 8.1 mph - N/A   Scattered Clouds
8:53 PM 46.9 °F - 28.0 °F 48% 30.17 in 10.0 mi NNW 10.4 mph - N/A   Overcast
9:53 PM 48.0 °F - 27.0 °F 44% 30.17 in 10.0 mi WNW 6.9 mph - N/A   Overcast
10:53 PM 46.0 °F 42.5 °F 28.0 °F 50% 30.17 in 10.0 mi WNW 6.9 mph - N/A   Overcast
11:53 PM 43.0 °F 37.2 °F 27.0 °F 53% 30.16 in 10.0 mi NW 10.4 mph - N/A   Mostly Cloudy